LogoCoinalyze
    Ad-Free Version Inicio Mercados Tasas de Financiamiento
    Datos de futuros
    • Datos agregados (Monedas)
    • Gráficos individuales
    • Gráficos globales
    Alertas
    TA
    Bitcoin Ethereum BNB Ripple Tron ZCash Dogecoin Monero Chainlink UNUS SED LEO Cardano Stellar Lumens Bitcoin Cash Litecoin Hedera Cronos Polkadot Ethereum Classic Algorand Cosmos Quant Dash VeChain Bitcoin SV BitTorrent Terra Decred Tezos Iota The Graph THETA Decentraland NEO MultiversX Chiliz Horizen Golem Basic Attention Token Qtum 0x DigiByte Beam RIF Token FTX Token Holo FUNToken aelf Ontology Zilliqa Nano Enjin Coin Ravencoin Verge Mask Network Siacoin Status WINk Waves IoTeX iExec RLC Power Ledger Steem Lisk Kyber Network Crystal Ark WOO Network Ardor IOST WAX Icon Storj Wanchain Loopring Bitcoin Diamond Augur AdEx Bitcoin Gold OmiseGO NEM MonaCoin BitShares Ren Komodo V Systems Nuls Mithril SOLVE Maker EOS Aion Nebulas HedgeTrade Bread Waltonchain Polygon TomoChain Metaverse ETP Fetch.ai GXChain Fantom MaidSafeCoin Bytom QASH
    Ordenar por:
    Más
    • API
    • Patrones de velas
    • Donar
    • Contacto
    • Mapa del Sitio
    • Privacy Policy
    • Disclaimer
    • Theme:
    Español
    • English
    • Français
    • Русский
    • Deutsch
    • Türkçe
    • Nederlands
    • Português (BR)
    • 한국어
    • 简体中文
    • 日本語
     
    Iniciar sesión / Registrar
    Markets/ Pepe/ PEPE a FDUSD/ PEPEFDUSD Binance
    Trades
    WL
    Chat
    Estad.
    Noticias
    ⦷
    AAA
    0.00000382 46235515.00000000 16:41:09
    0.00000383 2290635.00000000 16:37:32
    0.00000382 2290635.00000000 16:37:30
    0.00000384 2290635.00000000 16:37:26
    0.00000382 2290635.00000000 16:37:24
    0.00000383 3655354.00000000 16:37:23
    0.00000384 2290635.00000000 16:37:20
    0.00000382 380953.00000000 16:37:19
    0.00000382 404762.00000000 16:37:17
    0.00000382 402632.00000000 16:37:17
    0.00000383 91.00000000 16:37:16
    0.00000383 4432600.00000000 16:37:15
    0.00000383 3993300.00000000 16:37:15
    0.00000384 2283824.00000000 16:36:25
    0.00000383 2290635.00000000 16:36:21
    0.00000384 44211358.00000000 16:36:20
    0.00000382 2297547.00000000 16:36:06
    0.00000383 42450157.00000000 16:36:05
    0.00000383 7750746.00000000 16:36:05
    0.00000382 94.00000000 16:35:19
    0.00000382 21603300.00000000 16:35:19
    0.00000382 47367125.00000000 16:33:14
    0.00000382 114086717.00000000 16:33:11
    0.00000382 87120000.00000000 16:33:11
    0.00000381 37769.00000000 16:33:00
    0.00000381 4199475.00000000 16:32:59
    0.00000381 4199475.00000000 16:32:59
    0.00000380 9757900.00000000 16:31:54
    0.00000381 21567956.00000000 16:31:37
    0.00000381 56484911.00000000 16:31:19
    0.00000380 21408353.00000000 16:31:10
    0.00000379 2311315.00000000 16:29:49
    0.00000379 68418.00000000 16:29:38
    0.00000379 5013192.00000000 16:29:38
    0.00000379 5013192.00000000 16:29:38
    0.00000378 56.00000000 16:28:29
    0.00000378 2233500.00000000 16:28:27
    0.00000378 64767616.00000000 16:28:05
    0.00000379 64.00000000 16:27:36
    0.00000379 25819400.00000000 16:27:36
    0.00000379 10442800.00000000 16:27:13
    0.00000379 29769054.00000000 16:27:10
    0.00000378 554017.00000000 16:26:53
    0.00000378 547946.00000000 16:26:34
    0.00000378 22212645.00000000 16:26:33
    0.00000378 2292547.00000000 16:25:00
    0.00000378 17.00000000 16:24:41
    0.00000378 18215800.00000000 16:24:41
    0.00000379 2311315.00000000 16:21:35
    0.00000379 10094802.00000000 16:21:09
    0.00000378 15.00000000 16:20:48
    0.00000378 27540300.00000000 16:20:47
    0.00000378 1149892.00000000 16:19:14
    0.00000378 1128533.00000000 16:19:00
    0.00000378 72.00000000 16:18:40
    0.00000378 26910600.00000000 16:18:39
    0.00000378 264551.00000000 16:18:15
    0.00000378 264551.00000000 16:18:15
    0.00000378 264551.00000000 16:18:15
    0.00000378 264551.00000000 16:18:15
    0.00000378 39731235.00000000 16:18:15
    0.00000378 264551.00000000 16:18:15
    0.00000379 53.00000000 16:17:58
    0.00000379 27863100.00000000 16:17:58
    0.00000380 40317108.00000000 16:17:16
    0.00000380 263158.00000000 16:17:16
    0.00000380 263158.00000000 16:17:15
    0.00000380 263158.00000000 16:17:15
    0.00000380 263158.00000000 16:17:15
    0.00000380 263158.00000000 16:17:15
    0.00000381 7436719.00000000 16:16:41
    0.00000380 20215100.00000000 16:14:16
    0.00000381 23508149.00000000 16:13:47
    0.00000381 18920002.00000000 16:13:26
    0.00000381 2290600.00000000 16:13:26
    0.00000381 2297547.00000000 16:13:22
    0.00000381 75.00000000 16:13:21
    0.00000381 33939300.00000000 16:13:20
    0.00000382 2290635.00000000 16:12:42
    0.00000382 74.00000000 16:12:39
    0.00000382 25231800.00000000 16:12:39
    0.00000383 399569.00000000 16:12:05
    0.00000383 8425900.00000000 16:12:02
    0.00000384 89867099.00000000 16:11:59
    0.00000384 110710401.00000000 16:11:59
    0.00000383 7242100.00000000 16:11:10
    0.00000383 3427400.00000000 16:11:10
    0.00000383 10785800.00000000 16:11:10
    0.00000383 15.00000000 16:10:50
    0.00000383 10709800.00000000 16:10:00
    0.00000384 21495400.00000000 16:09:10
    0.00000384 2283824.00000000 16:08:42
    0.00000384 12957700.00000000 16:08:30
    0.00000384 2290635.00000000 16:08:08
    0.00000384 63.00000000 16:08:06
    0.00000384 12958300.00000000 16:08:06
    0.00000384 25585000.00000000 16:08:06
    0.00000382 2297547.00000000 16:08:03
    0.00000383 15846945.00000000 16:08:02
    0.00000382 88.00000000 16:07:23
    Desconectar
    AAA
    Ayuda
    🙂 🤣 😎 🤗 😛 😉 😜 🤑 🤔 😑 😴 😕 🙃 😲 😇 🙁 😢 😬 😟 😠 🕺 🏃 💪 ✌ 👌 👍 👎 👏 👋 🤝 🍺 🍻 🐋 🐟 🦈 🗽 🚄 ✈ 🛑 🚀 🏦 🌚 ⭐ 🌞 ⚡ 🏆 💰 💲 🔨 ❓ ❗ 💯 🔶 🏁
    ☺
    Iniciar sesión o Registrar y chatea
    24 Horas
    Variación
    +12.35%
    Volumen
    58,051,901,058
    Máx.
    0.00000386
    Mín.
    0.00000337
    7 Días
    Variación
    -1.04%
    Volumen
    253,183,648,387
    Máx.
    0.00000401
    Mín.
    0.00000337
    30 Días
    Variación
    +31.27%
    Volumen
    1,439,588,382,850
    Máx.
    0.00000456
    Mín.
    0.00000254
    DOGE, SHIB, PEPE, or Something Else: Which Meme Coin Can Make History in September? (3 AIs Weigh In)
    "DOGE remains the most likely to record the largest move in dollar terms and lead the entire sector," ChatGPT stated.
    cryptopotato.com
    Sept 3, 2026 00:41
    Pepe price rallies 25% as whale demand and futures interest surge
    Key takeaways Pepe has gained 25% this week, including a combined 22% advance over the previous two days. Seven whale transactions worth more than $1 million each occurred Thursday, the highest...
    coinjournal.net
    Aug 21, 2026 08:41
    PEPE Supply on Exchanges Just Took a Massive Hit – What’s Next?
    A drop in PEPE exchange balances has added to bullish expectations despite muted trader interest.
    cryptopotato.com
    Aug 6, 2026 20:02
    PEPE Exchange Outflows Hit Nearly 2-Year High as Whales Accumulate
    Pepe (PEPE) recorded its largest single-day exchange outflow since November 2024, with 4.54 trillion tokens leaving trading platforms, signaling that holders are moving supply away from immediate...
    beincrypto.com
    Aug 6, 2026 04:57
    Meme Coin Based on White House Shooter Conspiracy Rallies 320%
    $HENRY surged 300% after a 2023 Pepe tweet appeared to name the White House shooter, fueling a viral time-travel meme. The post Meme Coin Based on White House Shooter Conspiracy Rallies 320%...
    beincrypto.com
    Apr 27, 2026 16:11
    PEPE surges 4% as market sentiment improves, eyes Key resistance breakout
    Key takeaways Pepe extends gains on Wednesday, stretching its rally from the 50-day EMA. Derivatives data show heightened retail activity as risk-on sentiment returns to the market. Pepe (PEPE) is...
    coinjournal.net
    Apr 22, 2026 11:44
    Why The PEPE Price Could Stage A 55X Rally To Reach New $0.0001 ATH
    The PEPE price has now started to edge back into bullish conversations after the recent inflows into the crypto market. The last time PEPE’s weekly chart printed the kind of structure now...
    newsbtc.com
    Apr 21, 2026 15:30
    Pepe (PEPE) surges 9%, drawing interest from whales
    Key takeaways PEPE is up 9% in the last 24 hours, making it one of the best performers among the top 50 cryptocurrencies by market cap. The rally comes amid renewed interest from whales and retail...
    coinjournal.net
    Apr 16, 2026 07:40
    Murad Says SPX6900 (SPX) Is Primed for a Rally — Is He Right This Time?
    Crypto influencer Murad Mahmudov claims SPX6900 (SPX) is stabilizing at the same market cap level where Dogecoin (DOGE) and Pepe (PEPE) consolidated before their explosive rallies. The...
    beincrypto.com
    Apr 5, 2026 21:36
    The Shiba Inu Of This Cycle: Analyst Shares Why It Is Better To Buy PEPE Now
    In the bull market cycle of 2021-2022, the Shiba Inu meme coin made waves in a way that changed the face of meme coins forever. This came after Dogecoin’s initial 36,000% rally, and Shiba Inu...
    newsbtc.com
    Apr 4, 2026 07:30
    PEPE Explodes by 18% Amid Altcoin Rally, BTC Tapped $74K: Market Watch
    The frog-themed meme coin is today's biggest gainer, followed by TAO, DOT, and BONK.
    cryptopotato.com
    Mar 16, 2026 10:56
    Should PEPE traders brace for volatility as short squeeze potential builds?
    The memecoin market has seen its collective market capitalization drop by 48% over the past year, and 6.9% over the past month, according to CoinMarketCap. According to Glassnode, the memecoin...
    ambcrypto.com
    Mar 7, 2026 18:00
    Simplemente teclea el comando en el chat. Sustituir nick1 por el apodo real.
    • /ignore nick1 Ignorar un usuario del chat
    • /unignore nick1 Dejar de ignorar un usuario del chat
    • /ignorelist Mostrar usuarios del chat que has ignorado